Location: Bacea
(45.9500°N, 22.6667°E)
Time: 20:15:05
(UTC+00:00)

CZ-2C R/B - Pass Details

Date: 16 October 2021
Orbit: 784 x 871 km, 98.2° (Epoch: 29 November)

Event Time Altitude Azimuth Distance (km) Brightness Sun altitude
Rises 16:06:47 0° 20° (NNE) 3,471 5.6 -5.2°
Reaches altitude 10° 16:09:22 10° 28° (NNE) 2,527 4.8 -5.6°
Maximum altitude 16:14:36 38° 96° (E) 1,297 3.2 -6.5°
Drops below altitude 10° 16:19:44 10° 164° (SSE) 2,486 5.0 -7.4°
Sets 16:22:15 0° 172° (S) 3,407 5.8 -7.8°
